Time,TemperatureF,DewpointF,PressureIn,WindDirection,WindDirectionDegrees,WindSpeedMPH,WindSpeedGustMPH,Humidity,HourlyPrecipIn,Conditions,Clouds,dailyrainin,SoftwareType,DateUTC
2013-07-16 00:01:00,55.0,50.0,29.93,WSW,237,0.0,0.0,84,0.00,,,0.00,,2013-07-16 07:01:00,
2013-07-16 00:11:00,55.0,50.0,29.93,WSW,237,0.0,0.0,84,0.00,,,0.00,,2013-07-16 07:11:00,
2013-07-16 00:32:00,55.0,51.0,29.93,WSW,237,0.0,0.0,86,0.00,,,0.00,,2013-07-16 07:32:00,
2013-07-16 00:43:00,55.0,51.0,29.93,WSW,237,0.0,0.0,86,0.00,,,0.00,,2013-07-16 07:43:00,
2013-07-16 00:52:00,54.0,50.0,29.93,WSW,237,0.0,0.0,87,0.00,,,0.00,,2013-07-16 07:52:00,
2013-07-16 01:01:00,54.0,50.0,29.93,WSW,237,0.0,0.0,87,0.00,,,0.00,,2013-07-16 08:01:00,
2013-07-16 01:11:00,54.0,50.0,29.93,WSW,237,0.0,0.0,87,0.00,,,0.00,,2013-07-16 08:11:00,
2013-07-16 01:32:00,53.0,49.0,29.93,WSW,237,0.0,0.0,87,0.00,,,0.00,,2013-07-16 08:32:00,
2013-07-16 01:43:00,53.0,49.0,29.93,WSW,237,0.0,0.0,87,0.00,,,0.00,,2013-07-16 08:43:00,
2013-07-16 01:52:00,53.0,49.0,29.93,WSW,237,0.0,0.0,87,0.00,,,0.00,,2013-07-16 08:52:00,
2013-07-16 02:01:00,53.0,49.0,29.93,WSW,237,0.0,0.0,87,0.00,,,0.00,,2013-07-16 09:01:00,
2013-07-16 02:12:00,53.0,49.0,29.93,WSW,237,0.0,0.0,87,0.00,,,0.00,,2013-07-16 09:12:00,
2013-07-16 02:22:00,52.0,49.0,29.93,WSW,237,0.0,0.0,89,0.00,,,0.00,,2013-07-16 09:22:00,
2013-07-16 02:32:00,52.0,49.0,29.93,WSW,237,0.0,0.0,89,0.00,,,0.00,,2013-07-16 09:32:00,
2013-07-16 02:42:00,52.0,49.0,29.93,WSW,237,0.0,0.0,89,0.00,,,0.00,,2013-07-16 09:42:00,
2013-07-16 02:52:00,52.0,49.0,29.93,WSW,237,0.0,0.0,89,0.00,,,0.00,,2013-07-16 09:52:00,
2013-07-16 03:01:00,52.0,49.0,29.93,WSW,237,0.0,0.0,89,0.00,,,0.00,,2013-07-16 10:01:00,
2013-07-16 03:11:00,52.0,49.0,29.93,WSW,237,0.0,0.0,89,0.00,,,0.00,,2013-07-16 10:11:00,
2013-07-16 03:31:00,52.0,49.0,29.93,WSW,237,0.0,0.0,90,0.00,,,0.00,,2013-07-16 10:31:00,
2013-07-16 03:43:00,52.0,49.0,29.93,WSW,237,0.0,0.0,90,0.00,,,0.00,,2013-07-16 10:43:00,
2013-07-16 03:52:00,52.0,49.0,29.93,WSW,237,0.0,0.0,91,0.00,,,0.00,,2013-07-16 10:52:00,
2013-07-16 04:01:00,52.0,49.0,29.93,WSW,237,0.0,0.0,91,0.00,,,0.00,,2013-07-16 11:01:00,
2013-07-16 04:11:00,52.0,49.0,29.93,WSW,237,0.0,0.0,91,0.00,,,0.00,,2013-07-16 11:11:00,
2013-07-16 04:22:00,53.0,50.0,29.92,WSW,237,0.0,0.0,91,0.00,,,0.00,,2013-07-16 11:22:00,
2013-07-16 04:32:00,53.0,50.0,29.92,WSW,237,0.0,0.0,91,0.00,,,0.00,,2013-07-16 11:32:00,
2013-07-16 04:42:00,53.0,50.0,29.92,WSW,237,0.0,0.0,91,0.00,,,0.00,,2013-07-16 11:42:00,
2013-07-16 04:53:00,52.0,50.0,29.93,SW,224,0.0,2.0,92,0.00,,,0.00,,2013-07-16 11:53:00,
2013-07-16 05:01:00,52.0,50.0,29.93,SW,224,0.0,2.0,92,0.00,,,0.00,,2013-07-16 12:01:00,
2013-07-16 05:11:00,52.0,50.0,29.93,SW,224,0.0,2.0,92,0.00,,,0.00,,2013-07-16 12:11:00,
2013-07-16 05:22:00,52.0,50.0,29.92,SW,222,0.0,1.0,92,0.00,,,0.00,,2013-07-16 12:22:00,
2013-07-16 05:32:00,52.0,50.0,29.92,SW,222,0.0,1.0,92,0.00,,,0.00,,2013-07-16 12:32:00,
2013-07-16 05:43:00,52.0,50.0,29.92,SW,222,0.0,1.0,92,0.00,,,0.00,,2013-07-16 12:43:00,
2013-07-16 05:53:00,52.0,50.0,29.92,SW,222,0.0,1.0,92,0.00,,,0.00,,2013-07-16 12:53:00,
2013-07-16 06:01:00,52.0,49.0,29.93,SW,221,0.0,1.0,91,0.00,,,0.00,,2013-07-16 13:01:00,
2013-07-16 06:11:00,52.0,49.0,29.93,SW,221,0.0,1.0,91,0.00,,,0.00,,2013-07-16 13:11:00,
2013-07-16 06:32:00,52.0,49.0,29.94,SW,222,0.0,2.0,91,0.00,,,0.00,,2013-07-16 13:32:00,
2013-07-16 06:42:00,52.0,49.0,29.94,SW,222,0.0,2.0,91,0.00,,,0.00,,2013-07-16 13:42:00,
2013-07-16 07:01:00,52.0,50.0,29.93,SW,222,0.0,0.0,92,0.00,,,0.00,,2013-07-16 14:01:00,
2013-07-16 07:11:00,52.0,50.0,29.93,SW,222,0.0,0.0,92,0.00,,,0.00,,2013-07-16 14:11:00,
2013-07-16 07:21:00,52.0,50.0,29.95,SW,222,0.0,0.0,92,0.00,,,0.00,,2013-07-16 14:21:00,
2013-07-16 07:32:00,52.0,50.0,29.95,SW,222,0.0,0.0,92,0.00,,,0.00,,2013-07-16 14:32:00,
2013-07-16 07:43:00,52.0,50.0,29.95,SW,222,0.0,0.0,92,0.00,,,0.00,,2013-07-16 14:43:00,
2013-07-16 07:52:00,52.0,50.0,29.95,SW,222,0.0,0.0,92,0.00,,,0.00,,2013-07-16 14:52:00,
2013-07-16 08:01:00,52.0,50.0,29.95,SW,222,0.0,0.0,92,0.00,,,0.00,,2013-07-16 15:01:00,
2013-07-16 08:11:00,52.0,50.0,29.95,SW,222,0.0,0.0,92,0.00,,,0.00,,2013-07-16 15:11:00,
2013-07-16 08:32:00,53.0,51.0,29.95,SW,222,0.0,0.0,93,0.00,,,0.00,,2013-07-16 15:32:00,
2013-07-16 08:43:00,53.0,51.0,29.95,SW,222,0.0,0.0,93,0.00,,,0.00,,2013-07-16 15:43:00,
2013-07-16 08:53:00,54.0,51.0,29.96,SSE,151,0.0,4.0,91,0.00,,,0.00,,2013-07-16 15:53:00,
2013-07-16 09:01:00,54.0,51.0,29.96,SSE,151,0.0,4.0,91,0.00,,,0.00,,2013-07-16 16:01:00,
2013-07-16 09:11:00,54.0,51.0,29.96,SSE,151,0.0,4.0,91,0.00,,,0.00,,2013-07-16 16:11:00,
2013-07-16 09:32:00,55.0,52.0,29.96,SSE,151,1.0,3.0,89,0.00,,,0.00,,2013-07-16 16:32:00,
2013-07-16 09:43:00,55.0,52.0,29.96,SSE,151,1.0,3.0,89,0.00,,,0.00,,2013-07-16 16:43:00,
2013-07-16 09:52:00,56.0,52.0,29.97,SSE,151,2.0,3.0,87,0.00,,,0.00,,2013-07-16 16:52:00,
2013-07-16 10:02:00,56.0,52.0,29.97,SSE,151,2.0,3.0,87,0.00,,,0.00,,2013-07-16 17:02:00,
2013-07-16 10:12:00,56.0,52.0,29.97,SSE,151,2.0,3.0,87,0.00,,,0.00,,2013-07-16 17:12:00,
2013-07-16 10:32:00,57.0,53.0,29.97,SSE,151,0.0,2.0,85,0.00,,,0.00,,2013-07-16 17:32:00,
2013-07-16 10:43:00,57.0,53.0,29.97,SSE,151,0.0,2.0,85,0.00,,,0.00,,2013-07-16 17:43:00,
2013-07-16 10:53:00,59.0,54.0,29.97,SSE,150,1.0,3.0,84,0.00,,,0.00,,2013-07-16 17:53:00,
2013-07-16 11:01:00,59.0,54.0,29.97,SSE,150,1.0,3.0,84,0.00,,,0.00,,2013-07-16 18:01:00,
2013-07-16 11:11:00,59.0,54.0,29.97,SSE,150,1.0,3.0,84,0.00,,,0.00,,2013-07-16 18:11:00,
2013-07-16 11:22:00,59.0,54.0,29.97,SSE,150,1.0,3.0,84,0.00,,,0.00,,2013-07-16 18:22:00,
2013-07-16 11:32:00,61.0,55.0,29.98,SSE,151,0.0,2.0,82,0.00,,,0.00,,2013-07-16 18:32:00,
2013-07-16 11:43:00,61.0,55.0,29.98,SSE,151,0.0,2.0,82,0.00,,,0.00,,2013-07-16 18:43:00,
2013-07-16 11:52:00,63.0,56.0,29.99,SSE,152,2.0,2.0,79,0.00,,,0.00,,2013-07-16 18:52:00,
2013-07-16 12:01:00,63.0,56.0,29.99,SSE,152,2.0,2.0,79,0.00,,,0.00,,2013-07-16 19:01:00,
2013-07-16 12:11:00,63.0,56.0,29.99,SSE,152,2.0,2.0,79,0.00,,,0.00,,2013-07-16 19:11:00,
2013-07-16 12:32:00,65.0,58.0,29.99,SSW,195,2.0,3.0,77,0.00,,,0.00,,2013-07-16 19:32:00,
2013-07-16 12:43:00,65.0,58.0,29.99,SSW,195,2.0,3.0,77,0.00,,,0.00,,2013-07-16 19:43:00,
2013-07-16 12:52:00,65.0,58.0,30.00,SW,215,0.0,5.0,77,0.00,,,0.00,,2013-07-16 19:52:00,
2013-07-16 13:03:00,65.0,58.0,30.00,SW,215,0.0,5.0,77,0.00,,,0.00,,2013-07-16 20:03:00,
2013-07-16 13:11:00,65.0,58.0,30.00,SW,215,0.0,5.0,77,0.00,,,0.00,,2013-07-16 20:11:00,
2013-07-16 13:22:00,65.0,58.0,30.00,SW,215,0.0,5.0,77,0.00,,,0.00,,2013-07-16 20:22:00,
2013-07-16 13:32:00,66.0,58.0,30.01,SSW,206,3.0,7.0,75,0.00,,,0.00,,2013-07-16 20:32:00,
2013-07-16 13:43:00,66.0,58.0,30.01,SSW,206,3.0,7.0,75,0.00,,,0.00,,2013-07-16 20:43:00,
2013-07-16 13:52:00,66.0,58.0,30.01,SSW,206,3.0,7.0,75,0.00,,,0.00,,2013-07-16 20:52:00,
2013-07-16 14:01:00,66.0,57.0,30.02,SSW,201,2.0,4.0,73,0.00,,,0.00,,2013-07-16 21:01:00,
2013-07-16 14:11:00,66.0,57.0,30.02,SSW,201,2.0,4.0,73,0.00,,,0.00,,2013-07-16 21:11:00,
2013-07-16 14:22:00,66.0,57.0,30.02,SSW,201,2.0,4.0,73,0.00,,,0.00,,2013-07-16 21:22:00,
2013-07-16 14:32:00,67.0,58.0,30.02,SSE,156,3.0,4.0,72,0.00,,,0.00,,2013-07-16 21:32:00,
2013-07-16 14:43:00,67.0,58.0,30.02,SSE,156,3.0,4.0,72,0.00,,,0.00,,2013-07-16 21:43:00,
2013-07-16 14:52:00,67.0,58.0,30.02,SSE,156,3.0,4.0,72,0.00,,,0.00,,2013-07-16 21:52:00,
2013-07-16 15:01:00,67.0,58.0,30.03,SSW,204,4.0,8.0,72,0.00,,,0.00,,2013-07-16 22:01:00,
2013-07-16 15:11:00,67.0,58.0,30.03,SSW,204,4.0,8.0,72,0.00,,,0.00,,2013-07-16 22:11:00,
2013-07-16 15:33:00,67.0,58.0,30.04,SW,229,3.0,5.0,72,0.00,,,0.00,,2013-07-16 22:33:00,
2013-07-16 15:43:00,67.0,58.0,30.04,SW,229,3.0,5.0,72,0.00,,,0.00,,2013-07-16 22:43:00,
2013-07-16 16:01:00,66.0,57.0,30.05,SSW,203,1.0,5.0,74,0.00,,,0.00,,2013-07-16 23:01:00,
2013-07-16 16:11:00,66.0,57.0,30.05,SSW,203,1.0,5.0,74,0.00,,,0.00,,2013-07-16 23:11:00,
2013-07-16 16:32:00,65.0,56.0,30.06,SW,217,1.0,6.0,74,0.00,,,0.00,,2013-07-16 23:32:00,
2013-07-16 16:43:00,65.0,56.0,30.06,SW,217,1.0,6.0,74,0.00,,,0.00,,2013-07-16 23:43:00,
2013-07-16 16:52:00,65.0,56.0,30.06,SSW,200,2.0,6.0,74,0.00,,,0.00,,2013-07-16 23:52:00,
2013-07-16 17:01:00,65.0,56.0,30.06,SSW,200,2.0,6.0,74,0.00,,,0.00,,2013-07-17 00:01:00,
2013-07-16 17:22:00,65.0,56.0,30.06,SW,236,1.0,6.0,73,0.00,,,0.00,,2013-07-17 00:22:00,
2013-07-16 17:33:00,65.0,56.0,30.06,SW,236,1.0,6.0,73,0.00,,,0.00,,2013-07-17 00:33:00,
2013-07-16 17:42:00,65.0,56.0,30.06,SW,236,1.0,6.0,73,0.00,,,0.00,,2013-07-17 00:42:00,
2013-07-16 17:52:00,65.0,56.0,30.07,SW,228,2.0,3.0,72,0.00,,,0.00,,2013-07-17 00:52:00,
2013-07-16 18:01:00,65.0,56.0,30.07,SW,228,2.0,3.0,72,0.00,,,0.00,,2013-07-17 01:01:00,
2013-07-16 18:11:00,65.0,56.0,30.07,SW,228,2.0,3.0,72,0.00,,,0.00,,2013-07-17 01:11:00,
2013-07-16 18:32:00,64.0,55.0,30.07,SSW,192,3.0,3.0,73,0.00,,,0.00,,2013-07-17 01:32:00,
2013-07-16 18:43:00,64.0,55.0,30.07,SSW,192,3.0,3.0,73,0.00,,,0.00,,2013-07-17 01:43:00,
2013-07-16 18:53:00,64.0,55.0,30.07,SSW,192,3.0,3.0,73,0.00,,,0.00,,2013-07-17 01:53:00,
2013-07-16 19:01:00,62.0,54.0,30.07,SSW,197,1.0,3.0,76,0.00,,,0.00,,2013-07-17 02:01:00,
2013-07-16 19:11:00,62.0,54.0,30.07,SSW,197,1.0,3.0,76,0.00,,,0.00,,2013-07-17 02:11:00,
2013-07-16 19:22:00,62.0,54.0,30.07,SSW,197,1.0,3.0,76,0.00,,,0.00,,2013-07-17 02:22:00,
2013-07-16 19:32:00,62.0,55.0,30.07,SSW,198,1.0,2.0,78,0.00,,,0.00,,2013-07-17 02:32:00,
2013-07-16 19:43:00,62.0,55.0,30.07,SSW,198,1.0,2.0,78,0.00,,,0.00,,2013-07-17 02:43:00,
2013-07-16 19:53:00,62.0,55.0,30.08,SSW,198,0.0,2.0,78,0.00,,,0.00,,2013-07-17 02:53:00,
2013-07-16 20:01:00,62.0,55.0,30.08,SSW,198,0.0,2.0,78,0.00,,,0.00,,2013-07-17 03:01:00,
2013-07-16 20:11:00,62.0,55.0,30.08,SSW,198,0.0,2.0,78,0.00,,,0.00,,2013-07-17 03:11:00,
2013-07-16 20:22:00,62.0,55.0,30.08,SSW,198,0.0,2.0,78,0.00,,,0.00,,2013-07-17 03:22:00,
2013-07-16 20:32:00,61.0,54.0,30.09,SSE,148,0.0,2.0,78,0.00,,,0.00,,2013-07-17 03:32:00,
2013-07-16 20:43:00,61.0,54.0,30.09,SSE,148,0.0,2.0,78,0.00,,,0.00,,2013-07-17 03:43:00,
2013-07-16 20:53:00,61.0,54.0,30.09,SSE,148,0.0,2.0,78,0.00,,,0.00,,2013-07-17 03:53:00,
2013-07-16 21:01:00,60.0,54.0,30.10,South,190,0.0,5.0,80,0.00,,,0.00,,2013-07-17 04:01:00,
2013-07-16 21:11:00,60.0,54.0,30.10,South,190,0.0,5.0,80,0.00,,,0.00,,2013-07-17 04:11:00,
2013-07-16 21:22:00,59.0,53.0,30.11,South,174,0.0,3.0,81,0.00,,,0.00,,2013-07-17 04:22:00,
2013-07-16 21:32:00,59.0,53.0,30.11,South,174,0.0,3.0,81,0.00,,,0.00,,2013-07-17 04:32:00,
2013-07-16 21:43:00,59.0,53.0,30.11,South,174,0.0,3.0,81,0.00,,,0.00,,2013-07-17 04:43:00,
2013-07-16 21:53:00,59.0,53.0,30.11,South,174,0.0,3.0,81,0.00,,,0.00,,2013-07-17 04:53:00,
2013-07-16 22:01:00,59.0,54.0,30.12,South,174,1.0,3.0,83,0.00,,,0.00,,2013-07-17 05:01:00,
2013-07-16 22:11:00,59.0,54.0,30.12,South,174,1.0,3.0,83,0.00,,,0.00,,2013-07-17 05:11:00,
2013-07-16 22:32:00,58.0,53.0,30.14,South,174,0.0,0.0,84,0.00,,,0.00,,2013-07-17 05:32:00,
2013-07-16 22:43:00,58.0,53.0,30.14,South,174,0.0,0.0,84,0.00,,,0.00,,2013-07-17 05:43:00,
2013-07-16 22:52:00,58.0,53.0,30.14,South,174,0.0,0.0,84,0.00,,,0.00,,2013-07-17 05:52:00,
2013-07-16 23:01:00,58.0,54.0,30.14,South,174,0.0,0.0,86,0.00,,,0.00,,2013-07-17 06:01:00,
2013-07-16 23:11:00,58.0,54.0,30.14,South,174,0.0,0.0,86,0.00,,,0.00,,2013-07-17 06:11:00,
2013-07-16 23:22:00,58.0,54.0,30.14,South,174,0.0,0.0,86,0.00,,,0.00,,2013-07-17 06:22:00,
2013-07-16 23:32:00,58.0,54.0,30.15,South,174,0.0,0.0,85,0.00,,,0.00,,2013-07-17 06:32:00,
2013-07-16 23:43:00,58.0,54.0,30.15,South,174,0.0,0.0,85,0.00,,,0.00,,2013-07-17 06:43:00,
2013-07-16 23:52:00,58.0,54.0,30.16,South,174,0.0,0.0,85,0.00,,,0.00,,2013-07-17 06:52:00,